DLH067 EDDC-EDDF

Flight info

Callsign DLH067
Flight time 0h 42m
Altitude 34000
Route ABKIS4W/22 ABKIS Z715 NURGO T170 GAPLA/N0418F240 T178 KERAX KERAX5A
Aircraft A320/M-SDE3FGHIRWY/LB1

Departure

Time 2026-04-16 14:57
Airport Dresden Airport (EDDC)

Arrival

Time 2026-04-16 15:40
Airport Frankfurt Main Airport (EDDF)
Time Latitude Longitude Altitude Speed Heading
2026-04-16 14:25 51.12627 13.76542 711 ft 0 kts 221°
2026-04-16 14:34 51.12628 13.76542 711 ft 0 kts 221°
2026-04-16 14:37 51.12628 13.76543 711 ft 0 kts 221°
2026-04-16 14:50 51.12645 13.76567 714 ft 4 kts 227°
2026-04-16 14:50 51.12662 13.76601 715 ft 4 kts 238°
2026-04-16 14:50 51.12673 13.76638 715 ft 4 kts 259°
2026-04-16 14:50 51.12672 13.76675 715 ft 2 kts 310°
2026-04-16 14:51 51.12671 13.76677 715 ft 3 kts 311°
2026-04-16 14:53 51.12868 13.76500 712 ft 16 kts 39°
2026-04-16 14:53 51.12956 13.76621 711 ft 17 kts 41°
2026-04-16 14:54 51.13052 13.76750 712 ft 19 kts 40°
2026-04-16 14:54 51.13156 13.76893 711 ft 20 kts 41°
2026-04-16 14:54 51.13268 13.77046 712 ft 22 kts 40°
2026-04-16 14:54 51.13388 13.77209 710 ft 23 kts 41°
2026-04-16 14:55 51.13514 13.77387 715 ft 25 kts 42°
2026-04-16 14:55 51.13649 13.77570 714 ft 26 kts 39°
2026-04-16 14:55 51.13789 13.77762 715 ft 27 kts 41°
2026-04-16 14:55 51.13934 13.77963 711 ft 28 kts 41°
2026-04-16 14:56 51.14085 13.78169 714 ft 29 kts 41°
2026-04-16 14:56 51.14217 13.78351 711 ft 14 kts 38°
2026-04-16 14:56 51.14299 13.78301 713 ft 15 kts 310°
2026-04-16 14:56 51.14344 13.78218 712 ft 15 kts 310°
2026-04-16 14:57 51.14338 13.78042 715 ft 16 kts 220°
2026-04-16 14:57 51.14123 13.77746 714 ft 82 kts 221°
2026-04-16 14:57 51.13480 13.76862 713 ft 159 kts 220°
2026-04-16 14:57 51.12601 13.75645 1356 ft 168 kts 226°
2026-04-16 14:58 51.11732 13.74401 2325 ft 169 kts 226°
2026-04-16 14:58 51.09945 13.71748 4151 ft 183 kts 227°
2026-04-16 14:58 51.09014 13.70306 5111 ft 190 kts 227°
2026-04-16 14:59 51.08042 13.68879 5732 ft 195 kts 225°
2026-04-16 14:59 51.06967 13.67358 5985 ft 219 kts 224°
2026-04-16 14:59 51.05755 13.65676 6289 ft 244 kts 224°
2026-04-16 14:59 51.04413 13.63820 6725 ft 265 kts 223°
2026-04-16 15:00 51.03019 13.61893 7436 ft 273 kts 224°
2026-04-16 15:00 51.01548 13.59855 8257 ft 279 kts 224°
2026-04-16 15:00 51.00078 13.57803 9097 ft 283 kts 224°
2026-04-16 15:00 50.98592 13.55708 9942 ft 288 kts 225°
2026-04-16 15:01 50.97080 13.53566 10553 ft 300 kts 225°
2026-04-16 15:01 50.95471 13.51274 10801 ft 323 kts 224°
2026-04-16 15:01 50.93764 13.48841 11043 ft 344 kts 224°
2026-04-16 15:01 50.91955 13.46271 11635 ft 353 kts 224°
2026-04-16 15:02 50.90111 13.43670 12365 ft 357 kts 224°
2026-04-16 15:02 50.88247 13.41052 13110 ft 360 kts 224°
2026-04-16 15:02 50.86978 13.39270 13615 ft 362 kts 224°
2026-04-16 15:02 50.84466 13.35744 14511 ft 367 kts 224°
2026-04-16 15:03 50.82550 13.33057 15189 ft 369 kts 224°
2026-04-16 15:03 50.80624 13.30358 15861 ft 371 kts 224°
2026-04-16 15:03 50.78685 13.27641 16520 ft 373 kts 225°
2026-04-16 15:03 50.76832 13.25042 17158 ft 375 kts 225°
2026-04-16 15:04 50.74874 13.22297 17832 ft 378 kts 225°
2026-04-16 15:04 50.72900 13.19539 18496 ft 380 kts 225°
2026-04-16 15:04 50.70913 13.16767 19066 ft 382 kts 225°
2026-04-16 15:04 50.69592 13.14923 19440 ft 384 kts 225°
2026-04-16 15:05 50.67580 13.12118 19997 ft 387 kts 225°
2026-04-16 15:05 50.65556 13.09302 20548 ft 390 kts 225°
2026-04-16 15:05 50.63052 13.05197 21251 ft 388 kts 237°
2026-04-16 15:05 50.62055 13.02857 21595 ft 387 kts 243°
2026-04-16 15:06 50.60804 12.99092 22095 ft 389 kts 246°
2026-04-16 15:06 50.59565 12.95295 22583 ft 392 kts 246°
2026-04-16 15:06 50.58311 12.91473 23060 ft 394 kts 246°
2026-04-16 15:06 50.57047 12.87628 23536 ft 397 kts 246°
2026-04-16 15:07 50.55773 12.83757 23947 ft 400 kts 246°
2026-04-16 15:07 50.54489 12.79864 24167 ft 400 kts 246°
2026-04-16 15:07 50.53198 12.75949 24216 ft 408 kts 246°
2026-04-16 15:07 50.51882 12.71967 24214 ft 413 kts 246°
2026-04-16 15:08 50.50571 12.68008 24220 ft 414 kts 246°
2026-04-16 15:08 50.49238 12.63993 24215 ft 414 kts 246°
2026-04-16 15:08 50.47900 12.59981 24218 ft 415 kts 246°
2026-04-16 15:08 50.46562 12.55980 24220 ft 415 kts 246°
2026-04-16 15:09 50.45222 12.51971 24220 ft 415 kts 246°
2026-04-16 15:09 50.43881 12.47958 24218 ft 415 kts 246°
2026-04-16 15:09 50.42545 12.43957 24219 ft 415 kts 246°
2026-04-16 15:09 50.41206 12.39951 24216 ft 415 kts 246°
2026-04-16 15:10 50.39867 12.35945 24213 ft 415 kts 246°
2026-04-16 15:10 50.38527 12.31944 24211 ft 414 kts 246°
2026-04-16 15:10 50.37179 12.27938 24208 ft 415 kts 246°
2026-04-16 15:10 50.35830 12.23949 24205 ft 415 kts 246°
2026-04-16 15:11 50.34455 12.19978 24206 ft 416 kts 243°
2026-04-16 15:11 50.32839 12.16202 24203 ft 418 kts 240°
2026-04-16 15:11 50.31192 12.12461 24200 ft 418 kts 239°
2026-04-16 15:11 50.29647 12.08633 24199 ft 414 kts 247°
2026-04-16 15:12 50.28598 12.04481 24198 ft 409 kts 258°
2026-04-16 15:12 50.28114 12.00129 24196 ft 405 kts 268°
2026-04-16 15:12 50.28186 11.95754 24197 ft 402 kts 278°
2026-04-16 15:12 50.28784 11.91502 24196 ft 401 kts 289°
2026-04-16 15:13 50.29717 11.87396 24197 ft 401 kts 290°
2026-04-16 15:13 50.30658 11.83291 24199 ft 401 kts 290°
2026-04-16 15:13 50.31583 11.79242 24200 ft 401 kts 290°
2026-04-16 15:13 50.32517 11.75129 24201 ft 401 kts 289°
2026-04-16 15:14 50.33450 11.71016 24202 ft 401 kts 289°
2026-04-16 15:14 50.34383 11.66901 24199 ft 401 kts 289°
2026-04-16 15:14 50.35317 11.62781 24199 ft 401 kts 289°
2026-04-16 15:14 50.36250 11.58653 24198 ft 401 kts 289°
2026-04-16 15:15 50.37178 11.54539 24200 ft 401 kts 289°
2026-04-16 15:15 50.38110 11.50413 24199 ft 401 kts 289°
2026-04-16 15:15 50.39038 11.46287 24197 ft 401 kts 289°
2026-04-16 15:15 50.39964 11.42161 24197 ft 401 kts 289°
2026-04-16 15:16 50.40884 11.38039 24198 ft 401 kts 289°
2026-04-16 15:16 50.41804 11.33905 24199 ft 401 kts 289°
2026-04-16 15:16 50.42726 11.29770 24198 ft 401 kts 289°
2026-04-16 15:16 50.43646 11.25640 24193 ft 401 kts 289°
2026-04-16 15:17 50.44564 11.21507 24196 ft 401 kts 289°
2026-04-16 15:17 50.45468 11.17425 24195 ft 401 kts 289°
2026-04-16 15:17 50.46391 11.13234 24199 ft 401 kts 289°
2026-04-16 15:17 50.47300 11.09101 24194 ft 401 kts 289°
2026-04-16 15:18 50.48199 11.05017 24194 ft 401 kts 289°
2026-04-16 15:18 50.49107 11.00871 24195 ft 401 kts 289°
2026-04-16 15:18 50.50012 10.96732 24195 ft 401 kts 289°
2026-04-16 15:18 50.50917 10.92589 24194 ft 401 kts 289°
2026-04-16 15:19 50.51821 10.88445 24193 ft 401 kts 289°
2026-04-16 15:19 50.52725 10.84292 24192 ft 401 kts 289°
2026-04-16 15:19 50.53627 10.80142 24191 ft 401 kts 289°
2026-04-16 15:19 50.54550 10.75993 24194 ft 401 kts 289°
2026-04-16 15:20 50.55489 10.71865 24196 ft 401 kts 290°
2026-04-16 15:20 50.56437 10.67733 24192 ft 401 kts 290°
2026-04-16 15:20 50.57383 10.63607 24195 ft 401 kts 290°
2026-04-16 15:20 50.58328 10.59469 24194 ft 402 kts 289°
2026-04-16 15:21 50.59266 10.55338 24196 ft 402 kts 290°
2026-04-16 15:21 50.60204 10.51194 24191 ft 401 kts 290°
2026-04-16 15:21 50.61138 10.47056 24192 ft 401 kts 289°
2026-04-16 15:21 50.62071 10.42914 24193 ft 401 kts 289°
2026-04-16 15:22 50.63000 10.38773 24195 ft 401 kts 289°
2026-04-16 15:22 50.63813 10.34566 24195 ft 402 kts 282°
2026-04-16 15:22 50.64111 10.30251 24194 ft 403 kts 272°
2026-04-16 15:22 50.63857 10.25849 24191 ft 406 kts 261°
2026-04-16 15:23 50.63050 10.21577 24191 ft 410 kts 250°
2026-04-16 15:23 50.61760 10.17548 24195 ft 413 kts 245°
2026-04-16 15:23 50.60385 10.13582 24196 ft 413 kts 245°
2026-04-16 15:23 50.59006 10.09616 24197 ft 413 kts 245°
2026-04-16 15:24 50.57625 10.05652 24198 ft 413 kts 245°
2026-04-16 15:24 50.56241 10.01684 24115 ft 412 kts 245°
2026-04-16 15:24 50.54871 9.97747 23383 ft 409 kts 246°
2026-04-16 15:24 50.53783 9.93677 22723 ft 400 kts 255°
2026-04-16 15:25 50.53025 9.89497 22089 ft 395 kts 257°
2026-04-16 15:25 50.52285 9.85368 21504 ft 390 kts 257°
2026-04-16 15:25 50.51544 9.81284 20920 ft 387 kts 256°
2026-04-16 15:25 50.50808 9.77241 20372 ft 383 kts 256°
2026-04-16 15:26 50.50080 9.73232 19832 ft 380 kts 256°
2026-04-16 15:26 50.49386 9.69299 19308 ft 377 kts 257°
2026-04-16 15:26 50.48702 9.65342 18822 ft 374 kts 257°
2026-04-16 15:26 50.48033 9.61420 18295 ft 370 kts 257°
2026-04-16 15:27 50.47372 9.57535 17793 ft 366 kts 257°
2026-04-16 15:27 50.46688 9.53704 17310 ft 362 kts 256°
2026-04-16 15:27 50.45982 9.49934 16824 ft 359 kts 255°
2026-04-16 15:27 50.45268 9.46202 16328 ft 356 kts 255°
2026-04-16 15:28 50.44555 9.42500 15831 ft 353 kts 255°
2026-04-16 15:28 50.43848 9.38826 15329 ft 351 kts 255°
2026-04-16 15:28 50.43147 9.35169 14808 ft 349 kts 255°
2026-04-16 15:28 50.42450 9.31519 14273 ft 348 kts 255°
2026-04-16 15:29 50.41758 9.27882 13717 ft 348 kts 253°
2026-04-16 15:29 50.41062 9.24259 13157 ft 346 kts 252°
2026-04-16 15:29 50.40300 9.20688 12601 ft 345 kts 250°
2026-04-16 15:29 50.39483 9.17166 12051 ft 343 kts 249°
2026-04-16 15:30 50.38647 9.13673 11457 ft 343 kts 249°
2026-04-16 15:30 50.37810 9.10187 11003 ft 338 kts 249°
2026-04-16 15:30 50.37006 9.06810 10873 ft 324 kts 250°
2026-04-16 15:30 50.36242 9.03565 10750 ft 311 kts 250°
2026-04-16 15:31 50.35511 9.00451 10627 ft 299 kts 250°
2026-04-16 15:31 50.34806 8.97446 10487 ft 289 kts 250°
2026-04-16 15:31 50.34122 8.94528 10296 ft 282 kts 250°
2026-04-16 15:31 50.33448 8.91649 10243 ft 282 kts 250°
2026-04-16 15:32 50.32804 8.88906 10144 ft 282 kts 250°
2026-04-16 15:32 50.31894 8.86228 9570 ft 282 kts 229°
2026-04-16 15:32 50.30333 8.84435 9072 ft 282 kts 202°
2026-04-16 15:32 50.28428 8.83972 8637 ft 284 kts 175°
2026-04-16 15:33 50.26540 8.84826 8086 ft 283 kts 159°
2026-04-16 15:33 50.24743 8.85981 7532 ft 277 kts 159°
2026-04-16 15:33 50.22972 8.87110 7060 ft 273 kts 159°
2026-04-16 15:33 50.21218 8.88218 6565 ft 270 kts 159°
2026-04-16 15:34 50.19484 8.89308 6051 ft 268 kts 159°
2026-04-16 15:34 50.17773 8.90380 5577 ft 261 kts 159°
2026-04-16 15:34 50.16076 8.91200 5030 ft 254 kts 173°
2026-04-16 15:34 50.14385 8.91113 4821 ft 236 kts 192°
2026-04-16 15:35 50.12940 8.90311 4656 ft 228 kts 208°
2026-04-16 15:35 50.11683 8.88874 4442 ft 223 kts 225°
2026-04-16 15:35 50.10760 8.86968 4192 ft 220 kts 242°
2026-04-16 15:35 50.10181 8.84767 3910 ft 220 kts 249°
2026-04-16 15:36 50.09659 8.82540 3622 ft 219 kts 249°
2026-04-16 15:36 50.09136 8.80313 3332 ft 219 kts 249°
2026-04-16 15:36 50.08617 8.78111 3026 ft 213 kts 249°
2026-04-16 15:36 50.08124 8.76022 2765 ft 205 kts 249°
2026-04-16 15:37 50.07695 8.73964 2419 ft 194 kts 257°
2026-04-16 15:37 50.07512 8.72017 2222 ft 173 kts 262°
2026-04-16 15:37 50.07329 8.70250 2011 ft 158 kts 253°
2026-04-16 15:37 50.06925 8.68753 1834 ft 146 kts 243°
2026-04-16 15:38 50.06542 8.67316 1632 ft 143 kts 249°
2026-04-16 15:38 50.06222 8.65867 1436 ft 141 kts 251°
2026-04-16 15:38 50.05940 8.64603 1256 ft 140 kts 249°
2026-04-16 15:38 50.05587 8.63190 1046 ft 140 kts 249°
2026-04-16 15:39 50.05239 8.61773 828 ft 140 kts 251°
2026-04-16 15:39 50.04904 8.60353 618 ft 140 kts 252°
2026-04-16 15:39 50.04566 8.58932 426 ft 140 kts 252°
2026-04-16 15:39 50.04243 8.57566 364 ft 120 kts 249°
2026-04-16 15:40 50.04016 8.56619 360 ft 67 kts 249°
2026-04-16 15:40 50.03908 8.56164 357 ft 28 kts 251°
2026-04-16 15:40 50.03885 8.55870 350 ft 28 kts 274°
2026-04-16 15:40 50.03908 8.55670 352 ft 15 kts 294°
2026-04-16 15:41 50.03928 8.55637 356 ft 0 kts 330°
2026-04-16 15:41 50.03957 8.55637 351 ft 11 kts 16°
2026-04-16 15:41 50.04013 8.55802 355 ft 23 kts 69°
2026-04-16 15:42 50.04087 8.55969 352 ft 11 kts
2026-04-16 15:42 50.04140 8.55937 356 ft 11 kts 342°
2026-04-16 15:42 50.04246 8.55945 359 ft 17 kts 28°
2026-04-16 15:42 50.04361 8.55919 359 ft 18 kts 341°
2026-04-16 15:43 50.04484 8.55936 361 ft 19 kts 16°
2026-04-16 15:43 50.04579 8.56068 359 ft 20 kts 69°
2026-04-16 15:43 50.04631 8.56284 360 ft 22 kts 69°
2026-04-16 15:43 50.04667 8.56435 358 ft 7 kts 69°
2026-04-16 15:44 50.04684 8.56503 359 ft 6 kts 67°
2026-04-16 15:44 50.04712 8.56531 359 ft 4 kts
2026-04-16 15:44 50.04736 8.56519 359 ft 3 kts 338°
2026-04-16 15:44 50.04753 8.56509 363 ft 2 kts 339°
2026-04-16 15:45 50.04765 8.56503 359 ft 1 kts 339°
2026-04-16 15:45 50.04773 8.56498 357 ft 1 kts 340°
2026-04-16 15:45 50.04779 8.56494 361 ft 0 kts 340°
2026-04-16 15:45 50.04780 8.56494 361 ft 0 kts 340°